Location: Chèvreville
(49.1099°N, 2.8495°E)
Time: 15:48:45
(UTC+00:00)

BlueWalker 3 - Pass Details

Date: 26 January 2026
Orbit: 451 x 461 km, 53.2° (Epoch: 16 February)

Event Time Altitude Azimuth Distance (km) Brightness Sun altitude
Rises 19:12:57 0° 272° (W) 2,457 6.8 -25.6°
Reaches altitude 10° 19:15:09 10° 279° (W) 1,584 5.5 -25.9°
Enters shadow 19:17:14 29° 302° (WNW) 857 3.6 -26.3°
